Location: Huntsville
(41.2590°N, 111.7678°W)
Time: 08:26:41
(UTC+00:00)

Envisat - Pass Details

Date: 02 December 2021
Orbit: 764 x 766 km, 98.2° (Epoch: 18 January)

Event Time Altitude Azimuth Distance (km) Brightness Sun altitude
Rises 13:27:36 0° 1° (N) 3,242 6.1 -12.4°
Reaches altitude 10° 13:30:12 10° 350° (N) 2,311 5.2 -11.9°
Maximum altitude 13:34:26 27° 293° (WNW) 1,431 3.8 -11.1°
Drops below altitude 10° 13:38:39 10° 237° (WSW) 2,297 5.1 -10.4°
Sets 13:41:14 0° 225° (SW) 3,219 6.0 -9.9°
